TimeEDT,TemperatureF,Dew PointF,Humidity,Sea Level PressureIn,VisibilityMPH,Wind Direction,Wind SpeedMPH,Gust SpeedMPH,PrecipitationIn,Events,Conditions,WindDirDegrees,DateUTC
12:15 AM,46.4,46.4,100,30.16,10.0,Calm,Calm,-,N/A,,Clear,0,2012-10-22 04:15:00
12:35 AM,46.4,46.4,100,30.16,10.0,Calm,Calm,-,N/A,,Clear,0,2012-10-22 04:35:00
12:55 AM,46.4,46.4,100,30.16,10.0,Calm,Calm,-,N/A,,Clear,0,2012-10-22 04:55:00
1:15 AM,44.6,44.6,100,30.17,10.0,Calm,Calm,-,N/A,,Clear,0,2012-10-22 05:15:00
1:55 AM,44.6,44.6,100,30.17,7.0,Calm,Calm,-,N/A,,Clear,0,2012-10-22 05:55:00
2:35 AM,44.6,44.6,100,30.17,7.0,Calm,Calm,-,N/A,,Clear,0,2012-10-22 06:35:00
2:55 AM,44.6,44.6,100,30.17,7.0,Calm,Calm,-,N/A,,Clear,0,2012-10-22 06:55:00
3:35 AM,42.8,42.8,100,30.16,7.0,Calm,Calm,-,N/A,,Clear,0,2012-10-22 07:35:00
3:55 AM,42.8,42.8,100,30.17,10.0,Calm,Calm,-,N/A,,Clear,0,2012-10-22 07:55:00
4:15 AM,42.8,42.8,100,30.17,5.0,Calm,Calm,-,N/A,,Clear,0,2012-10-22 08:15:00
4:55 AM,42.8,42.8,100,30.17,5.0,Calm,Calm,-,N/A,,Clear,0,2012-10-22 08:55:00
5:15 AM,42.8,42.8,100,30.17,4.0,Calm,Calm,-,N/A,,Clear,0,2012-10-22 09:15:00
5:35 AM,42.8,42.8,100,30.18,7.0,Calm,Calm,-,N/A,,Clear,0,2012-10-22 09:35:00
5:55 AM,42.8,42.8,100,30.19,5.0,Calm,Calm,-,N/A,,Clear,0,2012-10-22 09:55:00
6:15 AM,42.8,42.8,100,30.19,5.0,Calm,Calm,-,N/A,,Clear,0,2012-10-22 10:15:00
6:35 AM,42.8,42.8,100,30.20,4.0,Calm,Calm,-,N/A,,Clear,0,2012-10-22 10:35:00
6:55 AM,42.8,42.8,100,30.21,5.0,Calm,Calm,-,N/A,,Clear,0,2012-10-22 10:55:00
7:15 AM,41.0,41.0,100,30.21,5.0,Calm,Calm,-,N/A,,Clear,0,2012-10-22 11:15:00
7:35 AM,42.8,42.8,100,30.22,4.0,Calm,Calm,-,N/A,,Clear,0,2012-10-22 11:35:00
8:15 AM,44.6,44.6,100,30.23,5.0,Calm,Calm,-,N/A,,Clear,0,2012-10-22 12:15:00
8:35 AM,46.4,46.4,100,30.24,10.0,Calm,Calm,-,N/A,,Clear,0,2012-10-22 12:35:00
8:55 AM,48.2,48.2,100,30.24,10.0,NW,3.5,-,N/A,,Clear,310,2012-10-22 12:55:00
9:15 AM,51.8,50.0,94,30.25,10.0,Calm,Calm,-,N/A,,Clear,0,2012-10-22 13:15:00
9:35 AM,53.6,50.0,88,30.25,10.0,Calm,Calm,-,N/A,,Clear,0,2012-10-22 13:35:00
9:55 AM,57.2,50.0,77,30.25,10.0,Calm,Calm,-,N/A,,Clear,0,2012-10-22 13:55:00
10:15 AM,60.8,50.0,68,30.25,10.0,Calm,Calm,-,N/A,,Clear,0,2012-10-22 14:15:00
10:35 AM,62.6,46.4,55,30.25,10.0,Calm,Calm,-,N/A,,Clear,0,2012-10-22 14:35:00
10:55 AM,64.4,44.6,49,30.24,10.0,Calm,Calm,-,N/A,,Clear,0,2012-10-22 14:55:00
11:15 AM,66.2,46.4,49,30.24,10.0,Calm,Calm,-,N/A,,Clear,0,2012-10-22 15:15:00
11:35 AM,68.0,44.6,43,30.24,10.0,Calm,Calm,-,N/A,,Clear,0,2012-10-22 15:35:00
11:55 AM,69.8,44.6,40,30.24,10.0,Calm,Calm,-,N/A,,Clear,0,2012-10-22 15:55:00
12:35 PM,71.6,44.6,38,30.23,10.0,West,4.6,-,N/A,,Clear,270,2012-10-22 16:35:00
1:15 PM,73.4,44.6,36,30.21,10.0,WSW,3.5,-,N/A,,Clear,240,2012-10-22 17:15:00
1:35 PM,73.4,44.6,36,30.20,10.0,North,3.5,-,N/A,,Clear,10,2012-10-22 17:35:00
1:55 PM,73.4,46.4,38,30.19,10.0,West,6.9,-,N/A,,Clear,270,2012-10-22 17:55:00
2:15 PM,75.2,44.6,34,30.18,10.0,Calm,Calm,-,N/A,,Clear,0,2012-10-22 18:15:00
2:35 PM,75.2,44.6,34,30.17,10.0,North,3.5,-,N/A,,Clear,350,2012-10-22 18:35:00
2:55 PM,77.0,44.6,32,30.16,10.0,West,5.8,-,N/A,,Clear,280,2012-10-22 18:55:00
3:15 PM,77.0,44.6,32,30.16,10.0,West,5.8,-,N/A,,Clear,270,2012-10-22 19:15:00
3:35 PM,75.2,44.6,34,30.15,10.0,Calm,Calm,-,N/A,,Clear,0,2012-10-22 19:35:00
3:55 PM,75.2,44.6,34,30.15,10.0,NNW,3.5,-,N/A,,Clear,340,2012-10-22 19:55:00
4:15 PM,77.0,46.4,34,30.15,10.0,West,3.5,-,N/A,,Clear,270,2012-10-22 20:15:00
4:35 PM,77.0,46.4,34,30.14,10.0,Calm,Calm,-,N/A,,Clear,0,2012-10-22 20:35:00
4:55 PM,77.0,46.4,34,30.14,10.0,West,4.6,-,N/A,,Clear,280,2012-10-22 20:55:00
5:15 PM,75.2,46.4,36,30.14,10.0,SSW,3.5,-,N/A,,Clear,210,2012-10-22 21:15:00
5:35 PM,75.2,46.4,36,30.14,10.0,WSW,3.5,-,N/A,,Clear,250,2012-10-22 21:35:00
5:55 PM,75.2,46.4,36,30.14,10.0,Calm,Calm,-,N/A,,Clear,0,2012-10-22 21:55:00
6:15 PM,73.4,50.0,44,30.14,10.0,Calm,Calm,-,N/A,,Clear,0,2012-10-22 22:15:00
6:35 PM,69.8,51.8,53,30.15,10.0,Calm,Calm,-,N/A,,Clear,0,2012-10-22 22:35:00
6:55 PM,64.4,53.6,68,30.15,10.0,Calm,Calm,-,N/A,,Clear,0,2012-10-22 22:55:00
7:15 PM,60.8,53.6,77,30.16,10.0,Calm,Calm,-,N/A,,Clear,0,2012-10-22 23:15:00
7:35 PM,59.0,53.6,82,30.16,10.0,Calm,Calm,-,N/A,,Clear,0,2012-10-22 23:35:00
7:55 PM,59.0,53.6,82,30.16,10.0,Calm,Calm,-,N/A,,Clear,0,2012-10-22 23:55:00
8:35 PM,55.4,53.6,94,30.17,10.0,Calm,Calm,-,N/A,,Clear,0,2012-10-23 00:35:00
8:55 PM,55.4,51.8,88,30.17,10.0,Calm,Calm,-,N/A,,Clear,0,2012-10-23 00:55:00
9:55 PM,53.6,51.8,94,30.18,10.0,Calm,Calm,-,N/A,,Clear,0,2012-10-23 01:55:00
10:15 PM,51.8,50.0,94,30.18,7.0,Calm,Calm,-,N/A,,Clear,0,2012-10-23 02:15:00
10:55 PM,51.8,51.8,100,30.19,7.0,Calm,Calm,-,N/A,,Clear,0,2012-10-23 02:55:00
11:15 PM,51.8,51.8,100,30.19,7.0,Calm,Calm,-,N/A,,Clear,0,2012-10-23 03:15:00
11:35 PM,50.0,50.0,100,30.20,5.0,Calm,Calm,-,N/A,,Clear,0,2012-10-23 03:35:00
11:55 PM,50.0,50.0,100,30.19,7.0,Calm,Calm,-,N/A,,Clear,0,2012-10-23 03:55:00